Flag for Western Sahara Weather past 2 weeks in El Aaiún, Western Sahara

Now
63 °F

Clear.


Feels Like: 63 °F
Forecast: N/A
Wind: 10 mph from Northeast

Location: Laayoune/Hassan Isl

Current Time: Dec 18, 2014 at 11:11:35 PM

Latest Report: Dec 18, 2014 at 10:00 PM


Visibility: 10 mi

Pressure: 30.27 "Hg

Humidity: 77%

Dew point: 55 °F

Location of El AaiúnLocation

Historic Weather in El Aaiún — Graph

°F

El Aaiún temperature yesterday

Maximum temperature yesterday: 72 °F (at 3:00 PM)
Minimum temperature yesterday: 57 °F (at 12:00 AM)
Average temperature yesterday: 63 °F

Past Weeks' High & Low Weather Summary

 TemperatureHumidityPressure
High77 °F (Dec 8, 3:00 PM)100% (Dec 10, 3:00 AM)30.33 "Hg (Dec 10, 3:00 AM)
Low50 °F (Dec 12, 6:00 AM)20% (Dec 12, 4:00 PM)30.07 "Hg (Dec 4, 4:00 AM)
Average63 °F66%30.21 "Hg
* Reported Dec 3 10:00 PM — Dec 18 10:00 PM, El Aaiún, Weather by CustomWeather, © 2014

Note: Actual official high and low records may vary slightly from our data, if they occured in-between our weather recording intervals... More about our weather records

Advertising

El Aaiún weather history for previous 24 hours

 ConditionsComfort  
Time TempWeatherWind HumidityBarometerVisibility
10:00 PM
Dec 18
63 °FClear.10 mph77%30.27 "Hg10 mi
9:00 PM63 °FClear.14 mph83%30.27 "Hg10 mi
8:00 PM63 °FClear.10 mph83%30.24 "Hg10 mi
7:00 PM64 °FSunny.10 mph83%30.24 "Hg10 mi
6:00 PM68 °FSunny.9 mph69%30.21 "Hg10 mi
5:00 PM72 °FSunny.1 mph41%30.21 "Hg10 mi
4:00 PM73 °FSunny.1 mph41%30.21 "Hg10 mi
3:00 PM72 °FSunny.7 mph47%30.21 "Hg10 mi
2:00 PM70 °FSunny.5 mph53%30.24 "Hg10 mi
12:00 PM66 °FSunny.9 mph68%30.27 "Hg10 mi
11:00 AM64 °FSunny.10 mph73%30.30 "Hg10 mi
10:00 AM61 °FPassing clouds.6 mph88%30.27 "Hg5 mi
9:00 AM57 °FScattered clouds.6 mph94%30.24 "Hg5 mi
8:00 AM54 °FPassing clouds.6 mph100%30.24 "Hg5 mi
7:00 AM55 °FPassing clouds.6 mph94%30.21 "Hg5 mi
6:00 AM55 °FPassing clouds.6 mph100%30.21 "Hg5 mi
5:00 AM57 °FPassing clouds.6 mph94%30.21 "Hg5 mi
3:00 AM57 °FPassing clouds.8 mph94%30.21 "Hg5 mi
2:00 AM61 °FPassing clouds.3 mph88%30.21 "Hg5 mi
1:00 AM61 °FPartly cloudy.5 mph88%30.21 "Hg5 mi
12:00 AM61 °FPassing clouds.8 mph88%30.21 "Hg5 mi
11:00 PM
Dec 17
61 °FPassing clouds.5 mph88%30.21 "HgN/A
Weather by CustomWeather, © 2014

See weather overviewHow to use our weather pages